This demonstration page uses our WeatherBlox Daily Observations layout. Learn more.

Left ArrowRight Arrow

Hourly Observations for October 17, 2018

Temp ( °F °C ) Dew Point ( °F °C ) Humidity (%) Winds ( mph kmh ) Pressure ( in mb ) Visibility ( mi km ) Precip ( " mm )
12:53 am 00:53 Clear 41 5 35 1.7 79 79 WNW 5 7 30.35 1028 10 16 0.00 0.00
1:53 am 01:53 Clear 40 4.4 35 1.7 83 83 WNW 5 7 30.37 1028 10 16 0.00 0.00
2:53 am 02:53 Clear 41 5 35 1.7 79 79 Calm 30.37 1029 10 16 0.00 0.00
3:53 am 03:53 Clear 39 3.9 35 1.7 86 86 WNW 3 6 30.39 1029 10 16 0.00 0.00
4:53 am 04:53 Clear 40 4.4 35 1.7 83 83 W 5 7 30.40 1029 10 16 0.00 0.00
5:53 am 05:53 Clear 38 3.3 34 1.1 86 86 Calm 30.42 1030 10 16 0.00 0.00
6:53 am 06:53 Clear 37 2.8 33 0.6 86 86 NW 3 6 30.45 1031 10 16 0.00 0.00
7:53 am 07:53 Sunny 37 2.8 33 0.6 86 86 WNW 5 7 30.47 1032 10 16 0.00 0.00
8:53 am 08:53 Sunny 42 5.6 37 2.8 82 82 WNW 3 6 30.48 1032 10 16 0.00 0.00
9:53 am 09:53 Sunny 50 10 41 5 71 71 WNW 3 6 30.50 1033 10 16 0.00 0.00
10:53 am 10:53 Sunny 58 14.4 42 5.6 56 56 Calm 30.50 1033 10 16 0.00 0.00
11:53 am 11:53 Sunny 61 16.1 37 2.8 41 41 VRB 3 6 30.50 1033 10 16 0.00 0.00
12:53 pm 12:53 Sunny 64 17.8 38 3.3 38 38 E 3 6 30.49 1033 10 16 0.00 0.00
1:53 pm 13:53 Sunny 65 18.3 37 2.8 36 36 VRB 3 6 30.47 1032 10 16 0.00 0.00
2:53 pm 14:53 Sunny 67 19.4 36 2.2 32 32 NNW 6 9 30.44 1031 10 16 0.00 0.00
3:53 pm 15:53 Sunny 67 19.4 36 2.2 32 32 Calm 30.43 1031 10 16 0.00 0.00
4:53 pm 16:53 Sunny 68 20 35 1.7 30 30 VRB 3 6 30.42 1030 10 16 0.00 0.00
5:53 pm 17:53 Sunny 66 18.9 36 2.2 33 33 SW 5 7 30.43 1030 10 16 0.00 0.00
6:53 pm 18:53 Clear 63 17.2 37 2.8 38 38 S 5 7 30.44 1031 8 13 0.00 0.00
7:53 pm 19:53 Clear 57 13.9 38 3.3 49 49 S 6 9 30.46 1032 10 16 0.00 0.00
8:53 pm 20:53 Clear 57 13.9 38 3.3 49 49 S 7 11 30.47 1032 8 13 0.00 0.00
9:53 pm 21:53 Clear 53 11.7 38 3.3 57 57 S 7 11 30.47 1032 10 16 0.00 0.00
10:53 pm 22:53 Clear 52 11.1 38 3.3 59 59 SSW 7 11 30.46 1031 8 13 0.00 0.00
11:53 pm 23:53 Clear 50 10 38 3.3 63 63 SSW 6 9 30.44 1031 7 11 0.00 0.00

Powered by AerisWeather